Estación de Colina
Ultimos registro cada 15 minutos 71
| N° | Estación | Fecha / Hora | Temperatura | Humedad | Lluvia | Velocidad | Dirección | Radiación | Presion |
| 71 | Colina | 03-05-2026 17:30 | 24,8 | 28 | 0 | 0 | 180 | 77 | 1015,3 |
| 70 | Colina | 03-05-2026 17:15 | 25 | 29 | 0 | 0 | 180 | 134 | 1015 |
| 69 | Colina | 03-05-2026 17:00 | 25,4 | 27 | 0 | 0,4 | 180 | 97 | 1015,1 |
| 68 | Colina | 03-05-2026 16:45 | 25,8 | 32 | 0 | 0,4 | 180 | 128 | 1014,7 |
| 67 | Colina | 03-05-2026 16:30 | 25,7 | 33 | 0 | 0,9 | 180 | 169 | 1014,5 |
| 66 | Colina | 03-05-2026 16:15 | 26,2 | 32 | 0 | 1,3 | 180 | 185 | 1014,5 |
| 65 | Colina | 03-05-2026 16:00 | 26,6 | 32 | 0 | 0,4 | 180 | 241 | 1014,5 |
| 64 | Colina | 03-05-2026 15:45 | 27,2 | 33 | 0 | 0,9 | 250 | 292 | 1014,5 |
| 63 | Colina | 03-05-2026 15:30 | 27,5 | 34 | 0 | 0,9 | 234 | 592 | 1014,6 |
| 62 | Colina | 03-05-2026 15:15 | 27,7 | 35 | 0 | 0,9 | 223 | 564 | 1014,5 |
| 61 | Colina | 03-05-2026 15:00 | 27,1 | 35 | 0 | 0,9 | 245 | 584 | 1014,6 |
| 60 | Colina | 03-05-2026 14:45 | 27 | 36 | 0 | 1,3 | 250 | 631 | 1014,5 |
| 59 | Colina | 03-05-2026 14:30 | 27,1 | 34 | 0 | 0,9 | 220 | 693 | 1014,4 |
| 58 | Colina | 03-05-2026 14:15 | 27,2 | 32 | 0 | 0,9 | 237 | 540 | 1014,5 |
| 57 | Colina | 03-05-2026 14:00 | 27,2 | 35 | 0 | 1,8 | 262 | 754 | 1014,3 |
| 56 | Colina | 03-05-2026 13:45 | 26,8 | 38 | 0 | 0,9 | 158 | 784 | 1014,6 |
| 55 | Colina | 03-05-2026 13:30 | 25,9 | 38 | 0 | 0 | 131 | 802 | 1015,1 |
| 54 | Colina | 03-05-2026 13:15 | 25,6 | 39 | 0 | 1,8 | 239 | 826 | 1015,3 |
| 53 | Colina | 03-05-2026 13:00 | 25,2 | 43 | 0 | 1,8 | 245 | 840 | 1015,5 |
| 52 | Colina | 03-05-2026 12:45 | 25,3 | 42 | 0 | 0 | 230 | 853 | 1015,6 |
| 51 | Colina | 03-05-2026 12:30 | 24,9 | 42 | 0 | 0,4 | 77 | 854 | 1015,8 |
| 50 | Colina | 03-05-2026 12:15 | 24,6 | 43 | 0 | 0,4 | 180 | 842 | 1016 |
| 49 | Colina | 03-05-2026 12:00 | 23,6 | 46 | 0 | 0 | 153 | 833 | 1016 |
| 48 | Colina | 03-05-2026 11:45 | 22,6 | 48 | 0 | 0,9 | 180 | 814 | 1016,1 |
| 47 | Colina | 03-05-2026 11:30 | 22,3 | 48 | 0 | 0 | 180 | 795 | 1016,3 |
| 46 | Colina | 03-05-2026 11:15 | 21,9 | 49 | 0 | 0 | 180 | 768 | 1016,6 |
| 45 | Colina | 03-05-2026 11:00 | 20,9 | 50 | 0 | 0 | 180 | 742 | 1016,7 |
| 44 | Colina | 03-05-2026 10:45 | 20 | 52 | 0 | 1,3 | 180 | 708 | 1017 |
| 43 | Colina | 03-05-2026 10:30 | 19,1 | 55 | 0 | 0 | 180 | 671 | 1017,2 |
| 42 | Colina | 03-05-2026 10:15 | 17,8 | 58 | 0 | 0,4 | 180 | 622 | 1017,3 |
| 41 | Colina | 03-05-2026 10:00 | 17,9 | 59 | 0 | 1,3 | 180 | 580 | 1017,3 |
| 40 | Colina | 03-05-2026 09:45 | 17 | 61 | 0 | 0 | 180 | 531 | 1017,3 |
| 39 | Colina | 03-05-2026 09:30 | 15,7 | 61 | 0 | 0 | 180 | 476 | 1017,6 |
| 38 | Colina | 03-05-2026 09:15 | 14,2 | 64 | 0 | 0 | 180 | 415 | 1017,6 |
| 37 | Colina | 03-05-2026 09:00 | 13,3 | 67 | 0 | 0 | 180 | 353 | 1017,5 |
| 36 | Colina | 03-05-2026 08:45 | 11,4 | 75 | 0 | 0 | 180 | 299 | 1017,6 |
| 35 | Colina | 03-05-2026 08:30 | 9 | 83 | 0 | 0 | 69 | 167 | 1017,4 |
| 34 | Colina | 03-05-2026 08:15 | 7,3 | 84 | 0 | 0 | 180 | 163 | 1017 |
| 33 | Colina | 03-05-2026 08:00 | 5,5 | 86 | 0 | 0 | 180 | 42 | 1016,7 |
| 32 | Colina | 03-05-2026 07:45 | 4,5 | 81 | 0 | 0 | 180 | 30 | 1016,3 |
| 31 | Colina | 03-05-2026 07:30 | 5 | 82 | 0 | 0 | 180 | 11 | 1016,1 |
| 30 | Colina | 03-05-2026 07:15 | 5,3 | 80 | 0 | 0 | 180 | 5 | 1015,7 |
| 29 | Colina | 03-05-2026 07:00 | 6 | 82 | 0 | 0 | 180 | 0 | 1015,7 |
| 28 | Colina | 03-05-2026 06:45 | 6,1 | 81 | 0 | 0 | 180 | 0 | 1015,7 |
| 27 | Colina | 03-05-2026 06:30 | 6,5 | 81 | 0 | 0 | 75 | 0 | 1015,7 |
| 26 | Colina | 03-05-2026 06:15 | 6,6 | 82 | 0 | 0 | 180 | 0 | 1015,8 |
| 25 | Colina | 03-05-2026 06:00 | 6,8 | 80 | 0 | 0 | 180 | 0 | 1015,8 |
| 24 | Colina | 03-05-2026 05:45 | 6,4 | 81 | 0 | 0 | 180 | 0 | 1015,9 |
| 23 | Colina | 03-05-2026 05:30 | 6,9 | 79 | 0 | 0 | 180 | 0 | 1016,1 |
| 22 | Colina | 03-05-2026 05:15 | 7,3 | 81 | 0 | 0 | 180 | 0 | 1016,1 |
| 21 | Colina | 03-05-2026 05:00 | 6,8 | 82 | 0 | 0 | 180 | 0 | 1015,9 |
| 20 | Colina | 03-05-2026 04:45 | 6,8 | 80 | 0 | 0 | 180 | 0 | 1016 |
| 19 | Colina | 03-05-2026 04:30 | 7,1 | 79 | 0 | 0 | 180 | 0 | 1016,2 |
| 18 | Colina | 03-05-2026 04:15 | 7,6 | 79 | 0 | 0 | 180 | 0 | 1016,1 |
| 17 | Colina | 03-05-2026 04:00 | 7,9 | 78 | 0 | 0 | 180 | 0 | 1016,3 |
| 16 | Colina | 03-05-2026 03:45 | 8,4 | 77 | 0 | 0 | 180 | 0 | 1016,4 |
| 15 | Colina | 03-05-2026 03:30 | 8,7 | 73 | 0 | 0,4 | 180 | 0 | 1016,5 |
| 14 | Colina | 03-05-2026 03:15 | 10,1 | 71 | 0 | 0 | 180 | 0 | 1016,6 |
| 13 | Colina | 03-05-2026 03:00 | 10,8 | 71 | 0 | 0,4 | 180 | 0 | 1016,4 |
| 12 | Colina | 03-05-2026 02:45 | 10,9 | 73 | 0 | 1,3 | 180 | 0 | 1016,3 |
| 11 | Colina | 03-05-2026 02:30 | 9,2 | 78 | 0 | 1,3 | 180 | 0 | 1016,6 |
| 10 | Colina | 03-05-2026 02:15 | 8,1 | 79 | 0 | 0 | 180 | 0 | 1016,4 |
| 9 | Colina | 03-05-2026 02:00 | 8,1 | 79 | 0 | 0 | 180 | 0 | 1016,4 |
| 8 | Colina | 03-05-2026 01:45 | 8,3 | 79 | 0 | 0 | 180 | 0 | 1016,4 |
| 7 | Colina | 03-05-2026 01:30 | 8,3 | 78 | 0 | 0 | 180 | 0 | 1016,4 |
| 6 | Colina | 03-05-2026 01:15 | 8,4 | 78 | 0 | 0 | 180 | 0 | 1016,7 |
| 5 | Colina | 03-05-2026 01:00 | 8,2 | 79 | 0 | 0 | 180 | 0 | 1016,9 |
| 4 | Colina | 03-05-2026 00:45 | 8,1 | 78 | 0 | 0 | 180 | 0 | 1017,2 |
| 3 | Colina | 03-05-2026 00:30 | 8,2 | 77 | 0 | 0 | 180 | 0 | 1017 |
| 2 | Colina | 03-05-2026 00:15 | 8,3 | 77 | 0 | 0 | 180 | 0 | 1017 |
| 1 | Colina | 03-05-2026 00:00 | 8,5 | 75 | 0 | 0 | 180 | 0 | 1016,9 |